Regional Weather Roundup
Issued by NWS Green Bay, WI

Home | Current Version | Previous Version | Text Only | Print | Product List | Glossary On
Versions: 1 2 3 4 5 6 7 8 9 10 11 12 13 14 15 16 17 18 19 20 21 22 23 24 25 26 27 28 29 30 31 32 33 34 35 36 37 38 39 40 41 42 43 44 45 46 47 48 49 50
000
ASUS43 KGRB 310159
RWRGRB

NORTH-CENTRAL AND NORTHEAST WISCONSIN REGIONAL WEATHER ROUNDUP
NATIONAL WEATHER SERVICE GREEN BAY WI
900 PM CDT WED JUL 30 2014

WIZ005-009-010>012-018-019-310300-
NORTH CENTRAL WISCONSIN

CITY           SKY/WX    TMP DP  RH WIND       PRES   REMARKS
IRONWOOD       NOT AVBL
MANITOWISH WTR NOT AVBL
ARBOR VITAE    NOT AVBL
EAGLE RIVER    NOT AVBL
LAND O LAKES   NOT AVBL
RHINELANDER    PTCLDY    59  53  80 E3        30.01S
PHILLIPS       MOCLDY    62  58  87 CALM      30.00S
ANTIGO         NOT AVBL
TOMAHAWK       NOT AVBL
MERRILL        NOT AVBL
$$

WIZ013-073-310300-
NORTHEAST WISCONSIN

CITY           SKY/WX    TMP DP  RH WIND       PRES   REMARKS
IRON MOUNTAIN  MOCLDY    59  56  89 CALM      29.97R
MARINETTE      CLOUDY    59  55  88 CALM      29.96S
$$

WIZ017-030-035>037-045-310300-
CENTRAL WISCONSIN

CITY           SKY/WX    TMP DP  RH WIND       PRES   REMARKS
MEDFORD        NOT AVBL
WAUSAU         LGT RAIN  66  58  75 W8        29.99R
MOSINEE        LGT RAIN  66  55  68 W5        30.01S
MARSHFIELD     MOCLDY    64  59  83 W6        30.01R
WISC RAPIDS    PTCLDY    66  56  70 W6        30.01S
STEVENS POINT  NOT AVBL
WAUPACA        MOCLDY    68  53  57 CALM      29.99S
SHAWANO        RAIN      67  56  69 N12       30.00R
CLINTONVILLE   MOCLDY    66  52  59 W3        29.98S
$$

WIZ038-039-048-051-310300-
FOX VALLEY

CITY           SKY/WX    TMP DP  RH WIND       PRES   REMARKS
NWS GREEN BAY  MOCLDY    65  56  72 W6        29.98R
APPLETON       PTCLDY    66  52  59 W6        29.99S
OSHKOSH        PTCLDY    65  54  67 W3        29.99R
FOND DU LAC    PTCLDY    65  55  70 W5        30.00R
$$

WIZ022-050-052-310300-
EAST CENTRAL WISCONSIN

CITY           SKY/WX    TMP DP  RH WIND       PRES   REMARKS
STURGEON BAY   CLOUDY    61  54  77 S5        29.99R
MANITOWOC      NOT AVBL
SHEBOYGAN      PTCLDY    60  51  72 S5        30.00R
$$

LMZ563-521-522-541>543-310300-
LAKESHORE

STATION/POSITION TIME  TEMP    WIND        PRES    VSBY  WAVE
                       AIR SEA DIR/SP/G                  HT/PER
                 (UTC) (F)     (DEG/KT/KT) (MB)    (MI)  (FT/S)
SHEBOYGAN LKSHOR 0100   64     180/ 10/ 10 1015.6F
KEWAUNEE LKSHORE 0100   62     200/  5/  9 1014.7F
NORTHPORT PIER   0100   62     210/  3/  6 1014.6R
N MID LAKE BUOY  0100   57 54  190/  6/  6 1014.2F         0
CHAMBERS ISLAND  0100   64     210/  4/  8 1014.9R
MENOMINEE LKSHOR 0100   63     240/  4/  8 1015.0F
$$


USA.gov is the U.S. government's official web portal to all federal, state and local government web resources and services.